Back to catalog

SL-16 DEB

AliveLEO
NORAD 18550·DEBRIS·🇷🇺 Russia

Launched Mar 18, 1987 from Baikonur Cosmodrome

Loading…

Next Passes (next 24 hours)

TLE

FreshSource: Space-Track

Epoch: Sep 13, 2026, 16:26 UTC

1 18550U 87027F   26256.68529183  .00000101  00000-0  12511-3 0  9991
2 18550  71.0274 352.9458 0182796 310.8044  47.7325 13.79295737986184

Track SL-16 DEB in real time with AllMySat

Download on the App Store